When you browse on this site, cookies collect data to enhance your experience and personalize the content and advertising you see.
Visit our Privacy Policy to learn more. By continuing to use the site, you agree to this use of cookies and data.
  • In Österreich
  • Länderverzeichnis
  • Für 7 Tage
  • Wassertemperatur
  • Wetterkarte
  • News
  • Widgets
  • user-avatar
    Anmelden

    Stündliche Wetter Saurimo

    Heute, 13 Dezember, Freitag

    Zeit Temperatur Niederschläge Wind Luftdruck Luftfeuchtigkeit
    00:00 +18°C° 0 mm 0 m/S 670 mmHg 96%
    01:00 +17°C° 0 mm 0 m/S 669 mmHg 97%
    02:00 +17°C° 0.1 mm 0 m/S 669 mmHg 97%
    03:00 +17°C° 0.1 mm 0 m/S 669 mmHg 97%
    04:00 +17°C° 0.1 mm 0 m/S 669 mmHg 97%
    05:00 +18°C° 0 mm 0 m/S 669 mmHg 96%
    06:00 +19°C° 0 mm 0 m/S 670 mmHg 94%
    07:00 +20°C° 0 mm 0 m/S 671 mmHg 93%
    08:00 +22°C° 0 mm 0 m/S 671 mmHg 83%
    09:00 +25°C° 0 mm 0 m/S 672 mmHg 74%
    10:00 +28°C° 0 mm 0 m/S 672 mmHg 65%
    11:00 +29°C° 1.4 mm 1 m/S 671 mmHg 70%
    12:00 +28°C° 1.4 mm 1 m/S 670 mmHg 76%
    13:00 +27°C° 1.4 mm 1 m/S 669 mmHg 81%
    14:00 +27°C° 1.6 mm 1 m/S 669 mmHg 82%
    15:00 +27°C° 1.6 mm 1 m/S 668 mmHg 82%
    16:00 +26°C° 1.6 mm 1 m/S 668 mmHg 83%
    17:00 +25°C° 0.3 mm 1 m/S 668 mmHg 86%
    18:00 +22°C° 0.3 mm 0 m/S 669 mmHg 89%
    19:00 +20°C° 0.3 mm 0 m/S 669 mmHg 91%
    20:00 +20°C° 0.4 mm 0 m/S 669 mmHg 92%
    21:00 +22°C° 0.4 mm 1 m/S 670 mmHg 93%
    22:00 +21°C° 0.4 mm 1 m/S 670 mmHg 94%
    23:00 +21°C° 0.5 mm 1 m/S 670 mmHg 95%

    Morgen, 14 Dezember, Samstag

    Zeit Temperatur Niederschläge Wind Luftdruck Luftfeuchtigkeit
    00:00 +21°C° 0.5 mm 1 m/S 669 mmHg 96%
    01:00 +20°C° 0.5 mm 1 m/S 669 mmHg 97%
    02:00 +20°C° 1.1 mm 1 m/S 669 mmHg 97%
    03:00 +20°C° 1.1 mm 1 m/S 669 mmHg 98%
    04:00 +18°C° 1.1 mm 0 m/S 669 mmHg 98%
    05:00 +20°C° 1 mm 1 m/S 669 mmHg 98%
    06:00 +21°C° 1 mm 1 m/S 670 mmHg 97%
    07:00 +21°C° 1 mm 1 m/S 671 mmHg 97%
    08:00 +23°C° 0.9 mm 1 m/S 671 mmHg 93%
    09:00 +24°C° 0.9 mm 1 m/S 671 mmHg 89%
    10:00 +26°C° 0.9 mm 1 m/S 671 mmHg 86%
    11:00 +27°C° 1.6 mm 1 m/S 671 mmHg 82%
    12:00 +26°C° 1.6 mm 0 m/S 670 mmHg 79%
    13:00 +26°C° 1.6 mm 0 m/S 670 mmHg 76%
    14:00 +26°C° 0.6 mm 0 m/S 669 mmHg 78%
    15:00 +25°C° 0.6 mm 0 m/S 669 mmHg 80%
    16:00 +25°C° 0.6 mm 0 m/S 668 mmHg 82%
    17:00 +23°C° 0.9 mm 0 m/S 669 mmHg 86%
    18:00 +24°C° 0.9 mm 1 m/S 669 mmHg 89%
    19:00 +22°C° 0.9 mm 1 m/S 669 mmHg 92%
    20:00 +22°C° 0.3 mm 1 m/S 670 mmHg 93%
    21:00 +22°C° 0.3 mm 1 m/S 670 mmHg 94%
    22:00 +21°C° 0.3 mm 1 m/S 671 mmHg 94%
    23:00 +21°C° 0.1 mm 1 m/S 670 mmHg 95%

    übermorgen, 15 Dezember, Sonntag

    Zeit Temperatur Niederschläge Wind Luftdruck Luftfeuchtigkeit
    00:00 +21°C° 0.1 mm 1 m/S 670 mmHg 96%
    01:00 +21°C° 0.1 mm 1 m/S 669 mmHg 97%
    02:00 +20°C° 0 mm 1 m/S 669 mmHg 97%
    03:00 +20°C° 0 mm 1 m/S 669 mmHg 98%
    04:00 +20°C° 0 mm 1 m/S 669 mmHg 98%
    05:00 +20°C° 0 mm 1 m/S 670 mmHg 97%
    06:00 +21°C° 0 mm 1 m/S 670 mmHg 96%
    07:00 +21°C° 0 mm 1 m/S 671 mmHg 95%
    08:00 +22°C° 0 mm 1 m/S 671 mmHg 91%
    09:00 +23°C° 0 mm 1 m/S 671 mmHg 87%
    10:00 +24°C° 0 mm 1 m/S 671 mmHg 83%
    11:00 +25°C° 0.3 mm 1 m/S 671 mmHg 80%
    12:00 +26°C° 0.3 mm 1 m/S 670 mmHg 76%
    13:00 +28°C° 0.3 mm 1 m/S 669 mmHg 72%
    14:00 +27°C° 1.6 mm 1 m/S 669 mmHg 78%
    15:00 +26°C° 1.6 mm 1 m/S 668 mmHg 83%
    16:00 +25°C° 1.6 mm 1 m/S 668 mmHg 89%
    17:00 +24°C° 1 mm 1 m/S 668 mmHg 90%
    18:00 +23°C° 1 mm 1 m/S 669 mmHg 92%
    19:00 +20°C° 1 mm 2 m/S 669 mmHg 94%
    20:00 +20°C° 0.3 mm 2 m/S 669 mmHg 95%
    21:00 +20°C° 0.3 mm 2 m/S 670 mmHg 96%
    22:00 +20°C° 0.3 mm 2 m/S 670 mmHg 97%
    23:00 +20°C° 0.3 mm 2 m/S 670 mmHg 97%

    16 Dezember, Montag

    Zeit Temperatur Niederschläge Wind Luftdruck Luftfeuchtigkeit
    00:00 +20°C° 0.3 mm 1 m/S 669 mmHg 97%
    01:00 +20°C° 0.3 mm 1 m/S 669 mmHg 97%
    02:00 +20°C° 1.4 mm 1 m/S 669 mmHg 98%
    03:00 +20°C° 1.4 mm 1 m/S 669 mmHg 98%
    04:00 +18°C° 1.4 mm 0 m/S 669 mmHg 99%
    05:00 +18°C° 1.6 mm 0 m/S 669 mmHg 99%
    06:00 +20°C° 1.6 mm 1 m/S 670 mmHg 98%
    07:00 +20°C° 1.6 mm 1 m/S 670 mmHg 98%
    08:00 +20°C° 0.6 mm 1 m/S 670 mmHg 97%
    09:00 +21°C° 0.6 mm 1 m/S 671 mmHg 97%
    10:00 +21°C° 0.6 mm 1 m/S 671 mmHg 96%
    11:00 +22°C° 0.3 mm 1 m/S 670 mmHg 94%
    12:00 +21°C° 0.3 mm 2 m/S 669 mmHg 91%
    13:00 +23°C° 0.3 mm 2 m/S 669 mmHg 88%
    14:00 +23°C° 0 mm 2 m/S 668 mmHg 85%
    15:00 +24°C° 0 mm 2 m/S 668 mmHg 82%
    16:00 +24°C° 0 mm 1 m/S 667 mmHg 79%
    17:00 +23°C° 0 mm 1 m/S 668 mmHg 84%
    18:00 +22°C° 0 mm 1 m/S 668 mmHg 90%
    19:00 +20°C° 0 mm 1 m/S 668 mmHg 95%
    20:00 +20°C° 0 mm 1 m/S 668 mmHg 95%
    21:00 +18°C° 0 mm 0 m/S 669 mmHg 96%
    22:00 +17°C° 0 mm 0 m/S 669 mmHg 96%
    23:00 +17°C° 0 mm 0 m/S 669 mmHg 96%

    17 Dezember, Dienstag

    Zeit Temperatur Niederschläge Wind Luftdruck Luftfeuchtigkeit
    00:00 +17°C° 0 mm 0 m/S 668 mmHg 96%
    01:00 +17°C° 0 mm 0 m/S 668 mmHg 96%
    02:00 +17°C° 0 mm 0 m/S 668 mmHg 96%
    03:00 +17°C° 0 mm 0 m/S 668 mmHg 96%
    04:00 +17°C° 0 mm 0 m/S 668 mmHg 96%
    05:00 +18°C° 0 mm 0 m/S 669 mmHg 94%
    06:00 +19°C° 0 mm 0 m/S 669 mmHg 92%
    07:00 +20°C° 0 mm 0 m/S 670 mmHg 91%
    08:00 +21°C° 0.5 mm 0 m/S 670 mmHg 87%
    09:00 +24°C° 0.5 mm 1 m/S 670 mmHg 84%
    10:00 +26°C° 0.5 mm 2 m/S 670 mmHg 81%
    11:00 +26°C° 1.2 mm 2 m/S 669 mmHg 80%
    12:00 +27°C° 1.2 mm 1 m/S 669 mmHg 79%
    13:00 +27°C° 1.2 mm 1 m/S 668 mmHg 78%
    14:00 +27°C° 0.8 mm 1 m/S 668 mmHg 80%
    15:00 +27°C° 0.8 mm 1 m/S 667 mmHg 81%
    16:00 +26°C° 0.8 mm 1 m/S 667 mmHg 82%
    17:00 +25°C° 0.6 mm 1 m/S 667 mmHg 86%
    18:00 +23°C° 0.6 mm 1 m/S 668 mmHg 89%
    19:00 +22°C° 0.6 mm 1 m/S 668 mmHg 92%
    20:00 +22°C° 1.6 mm 1 m/S 668 mmHg 93%
    21:00 +22°C° 1.6 mm 1 m/S 669 mmHg 95%
    22:00 +21°C° 1.6 mm 1 m/S 669 mmHg 96%
    23:00 +21°C° 0.8 mm 1 m/S 669 mmHg 97%

    18 Dezember, Mittwoch

    Zeit Temperatur Niederschläge Wind Luftdruck Luftfeuchtigkeit
    00:00 +21°C° 0.8 mm 1 m/S 668 mmHg 97%
    01:00 +21°C° 0.8 mm 1 m/S 668 mmHg 97%
    02:00 +21°C° 0.2 mm 1 m/S 668 mmHg 97%
    03:00 +19°C° 0.2 mm 0 m/S 668 mmHg 96%
    04:00 +19°C° 0.2 mm 0 m/S 668 mmHg 96%
    05:00 +19°C° 0.1 mm 0 m/S 668 mmHg 95%
    06:00 +19°C° 0.1 mm 0 m/S 669 mmHg 95%
    07:00 +20°C° 0.1 mm 0 m/S 669 mmHg 94%
    08:00 +21°C° 0.3 mm 0 m/S 669 mmHg 89%
    09:00 +25°C° 0.3 mm 1 m/S 670 mmHg 84%
    10:00 +26°C° 0.3 mm 1 m/S 670 mmHg 79%
    11:00 +27°C° 0.5 mm 1 m/S 669 mmHg 77%
    12:00 +27°C° 0.5 mm 2 m/S 669 mmHg 75%
    13:00 +28°C° 0.5 mm 2 m/S 668 mmHg 73%
    14:00 +27°C° 1.4 mm 2 m/S 668 mmHg 78%
    15:00 +26°C° 1.4 mm 2 m/S 667 mmHg 82%
    16:00 +26°C° 1.4 mm 2 m/S 667 mmHg 87%
    17:00 +25°C° 1.4 mm 2 m/S 667 mmHg 89%
    18:00 +23°C° 1.4 mm 1 m/S 668 mmHg 92%
    19:00 +22°C° 1.4 mm 1 m/S 668 mmHg 94%
    20:00 +22°C° 0.5 mm 1 m/S 668 mmHg 95%
    21:00 +21°C° 0.5 mm 1 m/S 669 mmHg 95%
    22:00 +20°C° 0.5 mm 2 m/S 669 mmHg 96%
    23:00 +20°C° 0.2 mm 2 m/S 669 mmHg 96%
    Mehr zeigen